Weather History for Elkins, WV

Change the Weather History Date:

Thursday, September 20, 2012

  Actual Average Record
Temperature  
Mean Temperature 57 °F 61 °F  
Max Temperature 75 °F 72 °F 89 °F (1908)
Min Temperature 39 °F 49 °F 31 °F (1956)
Degree Days  
Heating Degree Days 8 5  
Month to date heating degree days 74 58  
Since 1 July heating degree days 75 88  
Cooling Degree Days 0 1  
Month to date cooling degree days 74 38  
Year to date cooling degree days 663 464  
Growing Degree Days 7 (Base 50)    
Moisture  
Dew Point 44 °F    
Average Humidity 68    
Maximum Humidity 100    
Minimum Humidity 35    
Precipitation  
Precipitation 0.00 in 0.12 in 1.51 in (1933)
Month to date precipitation 4.16 2.46  
Year to date precipitation 35.97 35.27  
Snow  
Snow 0.00 in - - ()
Month to date snowfall 0.0  
Since 1 September snowfall 0.0  
Snow Depth 0.00 in    
Sea Level Pressure  
Sea Level Pressure 30.15 in    
Wind  
Wind Speed 1 mph (West)    
Max Wind Speed 10 mph    
Max Gust Speed 15 mph    
Visibility 4 miles    
Events Fog    
T = Trace of Precipitation, MM = Missing Value Source: NWS Daily Summary

Daily Weather History Graph

Daily Weather History Graph

Search for Another Location

Airport:

Trip Planner

Search our weather history database for the weather conditions in past years. The results will help you decide how hot, cold, wet, or windy it might be!

Date:

Astronomy

Sep. 20, 2012 Rise Set
Actual Time 7:05 AM EDT 7:18 PM EDT
Civil Twilight 6:39 AM EDT 7:45 PM EDT
Nautical Twilight 6:07 AM EDT 8:16 PM EDT
Astronomical Twilight 5:36 AM EDT 8:48 PM EDT
Moon 12:18 PM EDT (9/20) 10:22 PM EDT (9/20)
Length of Visible Light 13h 06m
Length of Day
12h 13m
Waxing Crescent, 26% of the Moon is Illuminated
Sep 20
Waxing Crescent
Sep 22
First Quarter
Sep 29
Full
Oct 8
Last Quarter
Oct 15
New

Hourly Weather History & Observations

Time (EDT) Temp. Dew Point Humidity Pressure Visibility Wind Dir Wind Speed Gust Speed Precip Events Conditions
12:51 AM 39.9 °F 37.9 °F 93% 30.20 in 10.0 mi Calm Calm - N/A   Clear
12:59 AM 39.2 °F 37.4 °F 93% 30.17 in 2.5 mi Calm Calm - N/A   Partly Cloudy
1:03 AM 39.2 °F 39.2 °F 100% 30.17 in 1.0 mi Calm Calm - N/A   Mist
1:10 AM 39.2 °F 37.4 °F 93% 30.17 in 0.8 mi Calm Calm - N/A   Mist
1:15 AM 39.2 °F 37.4 °F 93% 30.17 in 2.0 mi Calm Calm - N/A   Mostly Cloudy
1:20 AM 39.2 °F 37.4 °F 93% 30.17 in 5.0 mi Calm Calm - N/A   Scattered Clouds
1:32 AM 39.2 °F 37.4 °F 93% 30.16 in 1.5 mi Calm Calm - N/A   Mostly Cloudy
1:41 AM 39.2 °F 39.2 °F 100% 30.17 in 0.8 mi Calm Calm - N/A   Mist
1:51 AM 41.0 °F 39.9 °F 96% 30.20 in 0.5 mi Calm Calm - N/A Fog Fog
1:58 AM 41.0 °F 39.2 °F 93% 30.17 in 0.2 mi Calm Calm - N/A Fog Fog
2:51 AM 41.0 °F 39.9 °F 96% 30.19 in 0.2 mi Calm Calm - N/A Fog Fog
3:51 AM 39.9 °F 39.0 °F 97% 30.18 in 0.2 mi Calm Calm - N/A Fog Fog
4:09 AM 39.2 °F 39.2 °F 100% 30.15 in 0.5 mi Calm Calm - N/A Fog Fog
4:36 AM 39.2 °F 39.2 °F 100% 30.15 in 0.2 mi Calm Calm - N/A Fog Fog
4:51 AM 39.9 °F 39.0 °F 97% 30.17 in 0.2 mi Calm Calm - N/A Fog Fog
5:51 AM 39.0 °F 39.0 °F 100% 30.18 in 0.2 mi Calm Calm - N/A Fog Fog
6:51 AM 39.0 °F 39.0 °F 100% 30.19 in 0.2 mi Calm Calm - N/A Fog Fog
7:51 AM 39.9 °F 39.0 °F 97% 30.20 in 0.2 mi Calm Calm - N/A Fog Fog
8:51 AM 42.1 °F 41.0 °F 96% 30.21 in 0.2 mi Calm Calm - N/A Fog Fog
9:19 AM 42.8 °F 42.8 °F 100% 30.17 in 0.5 mi Calm Calm - N/A Fog Fog
9:33 AM 44.6 °F 42.8 °F 93% 30.16 in 1.0 mi Calm Calm - N/A   Overcast
9:48 AM 46.4 °F 44.6 °F 93% 30.16 in 0.5 mi Calm Calm - N/A Fog Fog
9:51 AM 46.0 °F 45.0 °F 96% 30.20 in 0.5 mi Calm Calm - N/A Fog Fog
9:59 AM 46.4 °F 44.6 °F 93% 30.16 in 2.0 mi Calm Calm - N/A   Mostly Cloudy
10:06 AM 48.2 °F 46.4 °F 93% 30.16 in 9.0 mi Calm Calm - N/A   Scattered Clouds
10:51 AM 57.9 °F 51.1 °F 78% 30.17 in 10.0 mi Calm Calm - 0.01 in   Partly Cloudy
11:07 AM 62.6 °F 53.6 °F 72% 30.14 in 0.2 mi Calm Calm - N/A   Haze
11:14 AM 62.6 °F 51.8 °F 68% 30.13 in - Calm Calm - N/A   Clear
11:51 AM 68.0 °F 50.0 °F 52% 30.12 in - SSE 6.9 mph - N/A   Clear
12:51 PM 70.0 °F 48.0 °F 46% 30.11 in 10.0 mi Variable 5.8 mph - N/A   Clear
1:51 PM 72.0 °F 46.9 °F 41% 30.09 in 10.0 mi Calm Calm - 0.01 in   Clear
2:51 PM 73.9 °F 44.1 °F 34% 30.07 in 10.0 mi WNW 6.9 mph - N/A   Clear
3:51 PM 73.9 °F 46.9 °F 38% 30.06 in 10.0 mi West 6.9 mph - N/A   Clear
4:51 PM 73.9 °F 46.0 °F 37% 30.06 in 10.0 mi Variable 3.5 mph - N/A   Clear
5:51 PM 73.0 °F 46.0 °F 38% 30.06 in 10.0 mi West 4.6 mph - N/A   Clear
6:51 PM 66.0 °F 54.0 °F 65% 30.06 in 10.0 mi Calm Calm - N/A   Clear
7:51 PM 57.0 °F 52.0 °F 83% 30.09 in 10.0 mi Calm Calm - N/A   Clear
8:51 PM 53.1 °F 51.1 °F 93% 30.11 in 10.0 mi Calm Calm - N/A   Clear
9:51 PM 51.1 °F 50.0 °F 96% 30.11 in 10.0 mi Calm Calm - N/A   Clear
10:51 PM 51.1 °F 48.9 °F 92% 30.10 in 10.0 mi Calm Calm - N/A   Clear
11:51 PM 50.0 °F 48.0 °F 93% 30.09 in 8.0 mi Calm Calm - N/A   Clear